map of CGR home
CGR - Airport
Location
City:  Campo Grande, Mato Grosso do Sul, Brazil
Name:Campo Grande International Airport
ICAO:SBCG
IATA:CGR

Details
Type:Airport (Aerodrome, Airfield)
Use:Public/Civil, Military, International (customs port of entry)
Latitude:2028'07"S (-20.468666)
Longitude:5440'21"W (-54.672499)
Datum:WGS 1984
Elevation:1833 ft (559 m)
Variation:17.77W (WMM2015v2 magnetic declination)
-0.16 annual change
Runways:1
Longest:8530 × 141 ft (2600 × 43 m), paved

Time
Time Zone:UTC-4 (DST-3)
Local Time:

Weather
METAR:SBCG 041400Z 10008KT 070V140 9999 FEW035 31/21 Q1016
TAF:SBCG 040830Z 0412/0512 13005KT CAVOK TX32/0418Z TN22/0508Z
BECMG 0412/0414 26008KT 9999 SCT035 FEW040TCU
BECMG 0422/0424 17005KT CAVOK PROB40 0508/0510 5000 BR BKN009
BECMG 0510/0512 9999 FEW020
RMK PER

Related Locations
Nearby:
Farthest:BSO: 12231 mi / 19684 km
Basco, PH

Find:

   beyond  
but within

Other Information
Maps:
NOTAMs:
Links:
Sources:

  
  • flag of Brazil
  • flag of Mato Grosso do Sul
  

Sectional Chart

Flight Planning
at skyvector.com

Satellite Image

Google Maps Satellite view

 

Copyright © 2004-2019 Karl L. Swartz. All rights reserved.
The Great Circle Mapper name and logo are trademarks of the Great Circle Mapper.
All other trademarks mentioned herein belong to their respective owners.
Please see credits for attibutions and further copyright information.

  Follow gcmap on Facebook Follow gcmap on Twitter GCmap on LinkedIn

hCard Microformat

Geo Microformat